DW2182 Weather Reports


time (UTC)temp
C
wind
direction
speed
KPH
gust
KPH
rain 1hr
cm
rain 24hr
cm
rain mn
cm
humidity
%
barometer
mb
20260902194517 31 90 4.8 12.9 0.00 2.77 2.18 69 1010.9
20260902193517 31 90 4.8 12.9 0.00 2.77 2.18 68 1010.9
20260902192517 30 68 3.2 8.0 0.00 2.77 2.18 71 1011.0
20260902191517 31 90 8.0 16.1 0.00 2.77 2.18 70 1011.1
20260902190517 31 90 8.0 16.1 0.00 2.77 2.18 68 1011.2
20260902185517 30 90 4.8 11.3 0.00 2.77 2.18 69 1011.3
20260902184517 29 90 4.8 11.3 0.00 2.77 2.18 71 1011.3
20260902183537 28 45 1.6 4.8 0.00 2.77 2.18 74 1011.4
20260902182517 28 90 4.8 11.3 0.00 2.77 2.18 72 1011.5
20260902181537 29 90 1.6 4.8 0.00 2.77 2.18 72 1011.6
20260902180537 28 90 3.2 9.7 0.00 2.77 2.18 77 1011.6
20260902175517 27 68 1.6 4.8 0.00 2.77 2.18 75 1011.8
20260902174517 27 0.0 3.2 0.00 2.77 2.18 75 1011.9
20260902173517 27 68 1.6 6.4 0.03 2.77 2.18 76 1012.1
20260902172517 27 68 3.2 4.8 0.03 2.77 2.18 79 1012.2
20260902171557 27 45 1.6 4.8 0.03 2.77 2.18 77 1012.1
20260902170517 27 68 1.6 8.0 0.03 2.77 2.18 78 1012.3
20260902165517 26 45 1.6 6.4 0.03 2.77 2.18 77 1012.2
20260902164517 26 158 1.6 4.8 0.03 2.77 2.18 77 1012.2
20260902163517 26 158 3.2 6.4 0.00 2.74 2.16 78 1012.4
20260902162516 25 0 1.6 6.4 0.00 2.74 2.16 82 1012.5
20260902161517 25 0 3.2 6.4 0.00 2.74 2.16 80 1012.7
20260902160517 24 0.0 0.0 0.00 2.74 2.16 82 1012.6
20260902155537 25 0 1.6 6.4 0.03 2.74 2.16 82 1012.7
20260902154537 24 135 3.2 6.4 0.03 2.74 2.16 84 1012.5
20260902153517 24 135 1.6 3.2 0.03 2.74 2.16 84 1012.8
20260902152517 23 0 1.6 6.4 0.03 2.74 2.16 85 1012.7
20260902151517 23 90 3.2 6.4 0.03 2.74 2.16 87 1012.5
20260902150517 22 0.0 0.0 0.03 2.74 2.16 90 1012.1
20260902145517 22 68 1.6 8.0 0.00 2.72 2.13 90 1011.7
20260902144516 22 45 1.6 4.8 0.00 2.72 2.13 91 1011.5
20260902143517 21 0.0 0.0 0.00 2.72 2.13 92 1011.5
20260902142517 21 0.0 0.0 0.03 2.72 2.13 92 1011.6
20260902141537 21 0.0 0.0 0.03 2.72 2.13 93 1011.5
20260902140516 21 0.0 0.0 0.03 2.72 2.13 94 1011.5
20260902135517 20 68 1.6 4.8 0.03 2.72 2.13 94 1011.4
20260902134517 20 68 1.6 4.8 0.03 2.72 2.13 95 1011.4
20260902133537 20 68 1.6 4.8 0.03 2.72 2.13 95 1011.7
20260902132516 20 45 1.6 4.8 0.00 2.69 2.11 96 1011.5
20260902131536 20 45 1.6 4.8 0.00 2.69 2.11 96 1011.5
20260902130516 20 0.0 0.0 0.03 2.69 2.11 97 1011.6
20260902125517 19 0.0 3.2 0.03 2.69 2.11 97 1011.6
20260902124557 19 0.0 0.0 0.03 2.69 2.11 97 1011.6
20260902123516 19 0.0 0.0 0.03 2.69 2.11 97 1011.7
20260902122517 19 0.0 0.0 0.03 2.69 2.11 97 1011.7
20260902121517 18 0.0 0.0 0.05 2.69 2.11 97 1011.3
20260902120517 19 0.0 0.0 0.03 2.67 2.08 97 1011.5
20260902115517 19 0.0 0.0 0.03 2.67 2.08 97 1011.6
20260902114517 19 0.0 0.0 0.05 2.67 2.08 97 1011.5
20260902113537 19 0.0 0.0 0.05 2.67 2.08 97 1011.4
20260902112517 19 0.0 0.0 0.05 2.67 2.08 97 1011.2
20260902111536 19 68 1.6 4.8 0.05 2.64 2.06 96 1011.3
20260902110516 19 68 1.6 4.8 0.05 2.64 2.06 96 1011.4
20260902105517 19 68 1.6 6.4 0.08 2.64 2.06 96 1011.5
20260902104537 19 68 1.6 6.4 0.05 2.62 2.03 96 1011.6
20260902103537 19 0.0 1.6 0.08 2.62 2.03 96 1011.8
20260902102517 19 68 1.6 3.2 0.10 2.62 2.03 96 1012.0
20260902101516 19 68 1.6 3.2 0.08 2.59 2.01 96 1012.4
20260902100516 19 68 1.6 3.2 0.10 2.59 2.01 96 1012.5
20260902095516 19 68 1.6 4.8 0.10 2.57 1.98 96 1012.4
20260902094516 19 68 1.6 3.2 0.13 2.57 1.98 96 1012.3
20260902093516 19 68 1.6 3.2 0.15 2.54 1.96 96 1012.4
20260902092517 19 90 3.2 8.0 0.15 2.51 1.93 96 1012.2
20260902091516 19 0.0 3.2 0.18 2.51 1.93 96 1011.9
20260902090516 19 68 1.6 4.8 0.20 2.49 1.91 96 1011.8
20260902085516 19 68 3.2 6.4 0.23 2.46 1.88 96 1012.2
20260902084516 19 90 3.2 8.0 0.25 2.44 1.85 96 1012.4
20260902083516 19 90 4.8 11.3 0.25 2.39 1.80 96 1012.7
20260902082536 19 90 8.0 12.9 0.28 2.36 1.78 96 1013.1
20260902081516 19 0.0 0.0 0.30 2.34 1.75 96 1012.9
20260902080516 19 0.0 0.0 0.33 2.29 1.70 96 1012.0
20260902075516 19 0.0 0.0 0.36 2.24 1.65 96 1011.8
20260902074516 19 90 1.6 3.2 0.41 2.18 1.60 96 1011.7
20260902073516 19 90 3.2 8.0 0.43 2.13 1.55 96 1012.1
20260902072516 19 0.0 4.8 0.48 2.08 1.50 95 1012.0
20260902071516 20 90 1.6 4.8 0.53 2.03 1.45 95 1012.0
20260902070536 20 135 3.2 11.3 0.56 1.96 1.37 95 1012.2
20260902065556 19 0.0 0.0 0.58 1.88 1.30 95 1010.6
20260902064516 20 45 4.8 11.3 0.58 1.78 1.19 95 1009.7
20260902063516 20 23 3.2 12.9 0.61 1.70 1.12 95 1010.6
20260902062516 20 23 3.2 8.0 0.61 1.60 1.02 95 1010.7
20260902061516 20 45 4.8 8.0 0.66 1.50 0.91 95 1010.9
20260902060517 20 45 4.8 12.9 0.74 1.40 0.81 95 1010.3
20260902055516 20 90 1.6 4.8 0.76 1.30 0.71 95 1011.4
20260902054516 20 90 1.6 6.4 0.74 1.19 0.61 95 1012.1
20260902053516 20 45 3.2 6.4 0.76 1.09 0.51 95 1012.5
20260902052516 20 45 1.6 8.0 0.94 0.99 0.41 94 1013.5
20260902051516 20 135 3.2 8.0 0.84 0.84 0.25 94 1014.7
20260902050516 21 113 16.1 35.4 0.66 0.66 0.08 92 1017.9
20260902045516 22 90 3.2 6.4 0.53 0.53 0.53 94 1013.4
20260902044516 22 45 1.6 4.8 0.46 0.46 0.46 94 1013.4
20260902043537 22 90 1.6 9.7 0.33 0.33 0.33 92 1012.8
20260902042516 23 113 3.2 6.4 0.05 0.05 0.05 86 1013.6
20260902041536 24 0.0 1.6 0.00 0.00 0.00 83 1012.5
20260902040516 24 23 1.6 4.8 0.00 0.00 0.00 82 1012.8
20260902035517 24 23 3.2 6.4 0.00 0.00 0.00 82 1012.6
20260902034516 24 23 3.2 8.0 0.00 0.00 0.00 83 1012.1
20260902033516 23 45 3.2 6.4 0.00 0.00 0.00 84 1012.2
20260902032516 23 45 3.2 8.0 0.00 0.00 0.00 85 1012.2
20260902031536 23 23 3.2 4.8 0.00 0.00 0.00 85 1012.3
20260902030516 23 23 1.6 4.8 0.00 0.00 0.00 85 1012.7
20260902025516 23 0.0 3.2 0.00 0.00 0.00 86 1012.5
20260902024516 24 23 1.6 4.8 0.00 0.00 0.00 85 1013.0
20260902023516 24 45 1.6 4.8 0.00 0.00 0.00 85 1012.8
20260902022516 24 45 1.6 3.2 0.00 0.00 0.00 85 1012.4
20260902021516 24 45 1.6 4.8 0.00 0.00 0.00 84 1012.4
20260902020516 24 0.0 0.0 0.00 0.00 0.00 84 1012.4
20260902015617 24 45 1.6 4.8 0.00 0.00 0.00 84 1012.5
20260902014516 24 45 1.6 4.8 0.00 0.00 0.00 84 1012.2
20260902013516 25 0.0 4.8 0.00 0.00 0.00 84 1012.2
20260902012516 25 0.0 0.0 0.00 0.00 0.00 83 1012.2
20260902011516 25 0.0 0.0 0.00 0.00 0.00 83 1012.2
20260902010516 25 45 3.2 4.8 0.00 0.00 0.00 83 1012.1
20260902005517 25 45 1.6 3.2 0.00 0.00 0.00 82 1012.1
20260902004536 26 23 1.6 4.8 0.00 0.00 0.00 82 1012.3
20260902003516 26 45 1.6 4.8 0.00 0.00 0.00 81 1012.3
20260902002516 26 23 1.6 4.8 0.00 0.00 0.00 80 1012.2
20260902001556 26 23 3.2 8.0 0.00 0.00 0.00 80 1012.1
20260902000516 26 23 1.6 4.8 0.00 0.00 0.00 81 1012.3
20260901235516 27 23 1.6 6.4 0.00 0.00 0.00 80 1012.4
20260901234516 27 23 3.2 8.0 0.00 0.00 0.00 79 1012.4
20260901233516 27 45 3.2 6.4 0.00 0.00 0.00 79 1012.5
20260901232516 27 45 3.2 9.7 0.00 0.00 0.00 79 1012.6
20260901231515 28 23 1.6 4.8 0.00 0.00 0.00 78 1012.6
20260901230516 28 23 1.6 4.8 0.00 0.00 0.00 78 1012.5
20260901225516 28 45 1.6 4.8 0.00 0.00 0.00 77 1012.6
20260901224536 28 45 3.2 6.4 0.00 0.00 0.00 77 1012.5
20260901223516 28 45 1.6 4.8 0.00 0.00 0.00 77 1012.6
20260901222517 28 0.0 3.2 0.00 0.00 0.00 77 1012.6
20260901221516 28 0.0 4.8 0.00 0.00 0.00 78 1012.7
20260901220536 28 45 1.6 4.8 0.00 0.00 0.00 76 1012.5
20260901215516 28 45 1.6 4.8 0.00 0.00 0.00 77 1012.6
20260901214516 28 45 1.6 3.2 0.00 0.00 0.00 77 1012.6
20260901213516 28 0.0 3.2 0.00 0.00 0.00 76 1012.7
20260901212516 28 45 1.6 3.2 0.00 0.00 0.00 76 1012.9
20260901211516 28 0.0 3.2 0.00 0.00 0.00 75 1012.8
20260901210516 28 0.0 3.2 0.00 0.00 0.00 75 1012.8
20260901205515 28 45 1.6 3.2 0.00 0.00 0.00 75 1012.9
20260901204515 28 45 1.6 4.8 0.00 0.00 0.00 75 1012.9
20260901203515 28 45 1.6 4.8 0.00 0.00 0.00 74 1012.9
20260901202515 28 68 1.6 6.4 0.00 0.00 0.00 73 1012.9
20260901201515 28 68 1.6 3.2 0.00 0.00 0.00 74 1013.0
20260901200516 28 0.0 3.2 0.00 0.00 0.00 76 1013.1
20260901195516 28 68 1.6 6.4 0.00 0.00 0.00 73 1013.1